EXS9HN EGNM-GCRR

Flight info

Callsign EXS9HN
Flight time 4h 7m
Altitude 39000
Route NELSA DCT BARTN N58 KARNO DCT OGTAW DCT ATHAS DCT OSSEP DCT ELNIF DCT ZESPE DCT PACSE DCT JOZMA DCT TALIG DCT KORUL DCT ASPOR DCT FTM DCT DEKKI DCT TROIA DCT SUNES DCT TAKAV DCT VEDOD UN857 TERTO
Aircraft B738/M-SDE2E3FGHIRWXY/LB1

Departure

Time 2026-04-30 05:19
Airport Leeds Bradford Airport (EGNM)

Arrival

Time 2026-04-30 09:27
Airport César Manrique-Lanzarote Airport (GCRR)
Time Latitude Longitude Altitude Speed Heading
2026-04-30 04:55 53.86879 -1.65760 664 ft 0 kts
2026-04-30 05:12 53.86876 -1.65760 664 ft 3 kts
2026-04-30 05:12 53.86849 -1.65756 664 ft 4 kts 339°
2026-04-30 05:12 53.86827 -1.65733 661 ft 4 kts 309°
2026-04-30 05:13 53.86816 -1.65695 663 ft 4 kts 276°
2026-04-30 05:13 53.86815 -1.65685 663 ft 0 kts 272°
2026-04-30 05:16 53.86814 -1.65709 664 ft 5 kts 257°
2026-04-30 05:16 53.86758 -1.65794 666 ft 14 kts 231°
2026-04-30 05:16 53.86744 -1.65948 667 ft 13 kts 272°
2026-04-30 05:17 53.86747 -1.66099 666 ft 13 kts 272°
2026-04-30 05:17 53.86761 -1.66298 667 ft 23 kts 295°
2026-04-30 05:17 53.86873 -1.66488 670 ft 24 kts 317°
2026-04-30 05:17 53.87013 -1.66702 675 ft 24 kts 318°
2026-04-30 05:18 53.87097 -1.66837 680 ft 13 kts 318°
2026-04-30 05:18 53.87176 -1.66950 681 ft 10 kts 320°
2026-04-30 05:18 53.87201 -1.66983 687 ft 10 kts 325°
2026-04-30 05:18 53.87207 -1.67023 680 ft 6 kts 170°
2026-04-30 05:19 53.87014 -1.66710 675 ft 82 kts 137°
2026-04-30 05:19 53.86390 -1.65748 671 ft 157 kts 137°
2026-04-30 05:19 53.85428 -1.64274 863 ft 206 kts 137°
2026-04-30 05:19 53.84315 -1.62604 1532 ft 220 kts 137°
2026-04-30 05:20 53.83137 -1.60948 2417 ft 223 kts 139°
2026-04-30 05:20 53.81784 -1.59634 3315 ft 224 kts 161°
2026-04-30 05:20 53.80265 -1.59836 3588 ft 227 kts 201°
2026-04-30 05:20 53.79142 -1.61673 4217 ft 236 kts 232°
2026-04-30 05:21 53.78592 -1.64471 4479 ft 270 kts 261°
2026-04-30 05:21 53.78499 -1.67810 4747 ft 298 kts 263°
2026-04-30 05:21 53.78333 -1.71449 4986 ft 323 kts 259°
2026-04-30 05:21 53.78011 -1.75247 5892 ft 315 kts 256°
2026-04-30 05:22 53.77600 -1.78763 7083 ft 302 kts 252°
2026-04-30 05:22 53.77150 -1.82171 7325 ft 299 kts 253°
2026-04-30 05:22 53.76558 -1.85508 7562 ft 294 kts 234°
2026-04-30 05:22 53.75155 -1.87793 8312 ft 273 kts 199°
2026-04-30 05:23 53.73390 -1.88807 9180 ft 268 kts 191°
2026-04-30 05:23 53.71587 -1.89715 9835 ft 274 kts 191°
2026-04-30 05:23 53.69743 -1.90666 10501 ft 279 kts 192°
2026-04-30 05:23 53.67841 -1.91645 10815 ft 297 kts 192°
2026-04-30 05:24 53.65791 -1.92696 10988 ft 319 kts 192°
2026-04-30 05:24 53.63607 -1.93818 11236 ft 336 kts 193°
2026-04-30 05:24 53.61352 -1.94984 11824 ft 340 kts 193°
2026-04-30 05:24 53.59085 -1.96164 12543 ft 341 kts 193°
2026-04-30 05:25 53.56811 -1.97347 13237 ft 344 kts 193°
2026-04-30 05:25 53.54515 -1.98539 13843 ft 348 kts 193°
2026-04-30 05:25 53.52150 -1.99760 13966 ft 365 kts 193°
2026-04-30 05:25 53.49669 -2.01032 14157 ft 379 kts 194°
2026-04-30 05:26 53.47109 -2.02345 14446 ft 388 kts 194°
2026-04-30 05:26 53.44631 -2.03621 14959 ft 389 kts 194°
2026-04-30 05:26 53.41948 -2.05004 15466 ft 392 kts 194°
2026-04-30 05:26 53.39323 -2.06354 15922 ft 396 kts 194°
2026-04-30 05:27 53.36671 -2.07714 16341 ft 401 kts 193°
2026-04-30 05:27 53.34000 -2.09082 16846 ft 402 kts 193°
2026-04-30 05:27 53.31314 -2.10456 17343 ft 404 kts 193°
2026-04-30 05:27 53.28614 -2.11834 17819 ft 407 kts 193°
2026-04-30 05:28 53.25902 -2.13215 18275 ft 410 kts 193°
2026-04-30 05:28 53.23162 -2.14608 18698 ft 413 kts 193°
2026-04-30 05:28 53.20412 -2.16005 19087 ft 415 kts 193°
2026-04-30 05:28 53.17637 -2.17411 19493 ft 417 kts 193°
2026-04-30 05:29 53.14854 -2.18821 19890 ft 419 kts 193°
2026-04-30 05:29 53.12057 -2.20235 20272 ft 422 kts 193°
2026-04-30 05:29 53.09238 -2.21658 20678 ft 424 kts 193°
2026-04-30 05:29 53.06410 -2.23084 21061 ft 426 kts 193°
2026-04-30 05:30 53.03567 -2.24516 21420 ft 429 kts 193°
2026-04-30 05:30 53.00707 -2.25954 21784 ft 431 kts 193°
2026-04-30 05:30 52.97831 -2.27399 22146 ft 433 kts 193°
2026-04-30 05:30 52.94932 -2.28854 22492 ft 436 kts 193°
2026-04-30 05:31 52.92026 -2.30309 22826 ft 438 kts 193°
2026-04-30 05:31 52.89098 -2.31773 23180 ft 440 kts 193°
2026-04-30 05:31 52.86164 -2.33238 23513 ft 442 kts 193°
2026-04-30 05:31 52.83207 -2.34713 23833 ft 444 kts 193°
2026-04-30 05:32 52.80244 -2.36189 24103 ft 446 kts 193°
2026-04-30 05:32 52.77261 -2.37672 24391 ft 448 kts 193°
2026-04-30 05:32 52.74271 -2.39157 24678 ft 449 kts 193°
2026-04-30 05:32 52.71271 -2.40645 24936 ft 451 kts 193°
2026-04-30 05:33 52.68261 -2.42137 25182 ft 453 kts 193°
2026-04-30 05:33 52.65237 -2.43632 25451 ft 455 kts 193°
2026-04-30 05:33 52.62201 -2.45130 25715 ft 456 kts 193°
2026-04-30 05:33 52.59157 -2.46631 25966 ft 458 kts 193°
2026-04-30 05:34 52.56100 -2.48136 26236 ft 458 kts 193°
2026-04-30 05:34 52.53054 -2.49634 26636 ft 456 kts 193°
2026-04-30 05:34 52.50028 -2.51123 27178 ft 451 kts 193°
2026-04-30 05:34 52.47035 -2.52594 27643 ft 448 kts 193°
2026-04-30 05:35 52.44045 -2.54059 27938 ft 449 kts 193°
2026-04-30 05:35 52.41047 -2.55523 28254 ft 449 kts 193°
2026-04-30 05:35 52.38059 -2.56979 28653 ft 447 kts 193°
2026-04-30 05:35 52.35083 -2.58429 29082 ft 445 kts 193°
2026-04-30 05:36 52.32118 -2.59872 29470 ft 444 kts 193°
2026-04-30 05:36 52.29155 -2.61312 29814 ft 444 kts 193°
2026-04-30 05:36 52.26196 -2.62747 30137 ft 444 kts 193°
2026-04-30 05:36 52.23238 -2.64180 30479 ft 443 kts 193°
2026-04-30 05:37 52.20281 -2.65610 30726 ft 444 kts 193°
2026-04-30 05:37 52.17320 -2.67040 30952 ft 445 kts 193°
2026-04-30 05:37 52.14352 -2.68473 31239 ft 444 kts 193°
2026-04-30 05:37 52.11396 -2.69898 31543 ft 443 kts 193°
2026-04-30 05:38 52.08436 -2.71324 31816 ft 443 kts 193°
2026-04-30 05:38 52.05514 -2.72728 32044 ft 444 kts 193°
2026-04-30 05:38 52.02553 -2.74149 32295 ft 444 kts 193°
2026-04-30 05:38 51.99592 -2.75569 32577 ft 444 kts 194°
2026-04-30 05:39 51.96617 -2.76992 32737 ft 446 kts 194°
2026-04-30 05:39 51.93634 -2.78419 32918 ft 448 kts 194°
2026-04-30 05:39 51.90648 -2.79845 33236 ft 446 kts 194°
2026-04-30 05:39 51.87681 -2.81261 33683 ft 444 kts 194°
2026-04-30 05:40 51.84709 -2.82607 33931 ft 443 kts 191°
2026-04-30 05:40 51.81654 -2.83655 34100 ft 444 kts 188°
2026-04-30 05:40 51.78595 -2.84402 34318 ft 444 kts 185°
2026-04-30 05:40 51.75529 -2.84923 34603 ft 441 kts 183°
2026-04-30 05:41 51.72519 -2.85328 34836 ft 441 kts 183°
2026-04-30 05:41 51.69461 -2.85786 35026 ft 441 kts 184°
2026-04-30 05:41 51.66415 -2.86341 35223 ft 441 kts 185°
2026-04-30 05:41 51.63373 -2.86971 35459 ft 439 kts 185°
2026-04-30 05:42 51.60351 -2.87622 35705 ft 438 kts 186°
2026-04-30 05:42 51.57335 -2.88277 35853 ft 438 kts 186°
2026-04-30 05:42 51.51423 -2.91031 35879 ft 451 kts 204°
2026-04-30 05:43 51.48662 -2.93348 36213 ft 446 kts 206°
2026-04-30 05:43 51.45936 -2.95658 36435 ft 442 kts 204°
2026-04-30 05:43 51.40304 -2.99582 36593 ft 443 kts 199°
2026-04-30 05:44 51.34561 -3.03208 36791 ft 444 kts 199°
2026-04-30 05:44 51.31701 -3.05062 37003 ft 442 kts 199°
2026-04-30 05:44 51.28870 -3.06939 37205 ft 441 kts 200°
2026-04-30 05:45 51.23186 -3.10784 37184 ft 444 kts 200°
2026-04-30 05:45 51.17507 -3.14663 37180 ft 443 kts 200°
2026-04-30 05:46 51.11844 -3.18526 37175 ft 443 kts 200°
2026-04-30 05:46 51.07143 -3.21721 37171 ft 442 kts 200°
2026-04-30 05:47 51.01484 -3.25554 37167 ft 442 kts 200°
2026-04-30 05:47 50.95831 -3.29372 37137 ft 442 kts 200°
2026-04-30 05:48 50.90174 -3.33185 37132 ft 442 kts 200°
2026-04-30 05:48 50.84520 -3.36983 37139 ft 441 kts 199°
2026-04-30 05:49 50.78870 -3.40767 37143 ft 441 kts 200°
2026-04-30 05:49 50.73226 -3.44538 37122 ft 441 kts 200°
2026-04-30 05:50 50.67579 -3.48302 37130 ft 440 kts 200°
2026-04-30 05:50 50.61935 -3.52055 37136 ft 440 kts 200°
2026-04-30 05:51 50.56288 -3.55799 37125 ft 440 kts 200°
2026-04-30 05:51 50.50645 -3.59531 37132 ft 440 kts 200°
2026-04-30 05:52 50.44998 -3.63256 37129 ft 440 kts 200°
2026-04-30 05:52 50.39348 -3.66974 37122 ft 441 kts 200°
2026-04-30 05:53 50.33692 -3.70686 37132 ft 441 kts 199°
2026-04-30 05:53 50.28036 -3.74389 37123 ft 439 kts 199°
2026-04-30 05:54 50.22400 -3.78067 37115 ft 438 kts 199°
2026-04-30 05:54 50.16806 -3.81710 37095 ft 438 kts 199°
2026-04-30 05:55 50.11187 -3.85359 37082 ft 437 kts 199°
2026-04-30 05:55 50.05573 -3.88996 37063 ft 437 kts 199°
2026-04-30 05:56 49.99959 -3.92624 37074 ft 437 kts 199°
2026-04-30 05:56 49.94316 -3.96261 37077 ft 436 kts 199°
2026-04-30 05:57 49.88752 -3.99838 37074 ft 436 kts 199°
2026-04-30 05:57 49.83149 -4.03431 37059 ft 436 kts 199°
2026-04-30 05:58 49.77509 -4.07039 37083 ft 436 kts 199°
2026-04-30 05:58 49.71904 -4.10615 37048 ft 436 kts 199°
2026-04-30 05:59 49.66299 -4.14183 37040 ft 436 kts 199°
2026-04-30 05:59 49.60727 -4.17721 37049 ft 436 kts 199°
2026-04-30 06:00 49.55080 -4.21296 37042 ft 436 kts 199°
2026-04-30 06:00 49.49508 -4.24817 37046 ft 436 kts 199°
2026-04-30 06:01 49.43852 -4.28381 37030 ft 436 kts 199°
2026-04-30 06:01 49.38268 -4.31891 37033 ft 437 kts 199°
2026-04-30 06:02 49.32633 -4.35425 37021 ft 438 kts 199°
2026-04-30 06:02 49.26988 -4.38956 37028 ft 438 kts 199°
2026-04-30 06:03 49.21337 -4.42482 37022 ft 439 kts 199°
2026-04-30 06:03 49.15683 -4.46000 37026 ft 439 kts 199°
2026-04-30 06:04 49.10021 -4.49516 37009 ft 439 kts 199°
2026-04-30 06:05 49.01540 -4.54766 37017 ft 438 kts 199°
2026-04-30 06:05 48.95896 -4.58249 37001 ft 437 kts 199°
2026-04-30 06:06 48.90252 -4.61724 36998 ft 437 kts 199°
2026-04-30 06:06 48.84621 -4.65182 37011 ft 436 kts 199°
2026-04-30 06:07 48.78994 -4.68629 36988 ft 436 kts 199°
2026-04-30 06:07 48.73374 -4.72063 36993 ft 436 kts 199°
2026-04-30 06:08 48.67745 -4.75495 36986 ft 436 kts 199°
2026-04-30 06:08 48.62124 -4.78913 36976 ft 435 kts 199°
2026-04-30 06:09 48.56501 -4.82324 36986 ft 435 kts 199°
2026-04-30 06:09 48.50880 -4.85726 36987 ft 435 kts 199°
2026-04-30 06:10 48.45256 -4.89121 36984 ft 435 kts 199°
2026-04-30 06:10 48.39638 -4.92506 36992 ft 435 kts 199°
2026-04-30 06:11 48.34012 -4.95887 36978 ft 436 kts 199°
2026-04-30 06:11 48.28423 -4.99237 36993 ft 435 kts 199°
2026-04-30 06:12 48.22792 -5.02604 36991 ft 436 kts 199°
2026-04-30 06:12 48.17158 -5.05966 36984 ft 436 kts 199°
2026-04-30 06:13 48.11526 -5.09318 37001 ft 436 kts 199°
2026-04-30 06:13 48.05892 -5.12663 37006 ft 436 kts 199°
2026-04-30 06:14 48.00254 -5.16004 36995 ft 435 kts 199°
2026-04-30 06:14 47.94626 -5.19331 36980 ft 435 kts 199°
2026-04-30 06:15 47.89005 -5.22645 36988 ft 434 kts 200°
2026-04-30 06:15 47.83386 -5.25950 36984 ft 434 kts 200°
2026-04-30 06:16 47.77761 -5.29252 36981 ft 434 kts 199°
2026-04-30 06:16 47.72143 -5.32541 36991 ft 434 kts 199°
2026-04-30 06:17 47.66520 -5.35826 36983 ft 434 kts 200°
2026-04-30 06:17 47.60899 -5.39101 36994 ft 434 kts 200°
2026-04-30 06:18 47.55270 -5.42374 36979 ft 435 kts 200°
2026-04-30 06:18 47.49635 -5.45644 36993 ft 435 kts 200°
2026-04-30 06:19 47.43990 -5.48910 36972 ft 436 kts 200°
2026-04-30 06:19 47.38349 -5.52167 36987 ft 435 kts 200°
2026-04-30 06:20 47.32701 -5.55422 36989 ft 436 kts 200°
2026-04-30 06:20 47.27054 -5.58668 36966 ft 436 kts 200°
2026-04-30 06:21 47.21398 -5.61911 36991 ft 436 kts 200°
2026-04-30 06:21 47.15741 -5.65148 36985 ft 437 kts 200°
2026-04-30 06:22 47.10077 -5.68381 36980 ft 437 kts 200°
2026-04-30 06:22 47.04442 -5.71590 36992 ft 437 kts 200°
2026-04-30 06:23 46.98760 -5.74819 36991 ft 438 kts 201°
2026-04-30 06:23 46.93070 -5.78043 36991 ft 439 kts 201°
2026-04-30 06:24 46.87363 -5.81273 36995 ft 440 kts 201°
2026-04-30 06:24 46.81654 -5.84495 36967 ft 441 kts 201°
2026-04-30 06:25 46.75933 -5.87717 36997 ft 441 kts 201°
2026-04-30 06:25 46.70202 -5.90936 37000 ft 441 kts 201°
2026-04-30 06:26 46.64461 -5.94155 36987 ft 442 kts 201°
2026-04-30 06:26 46.58721 -5.97365 36998 ft 442 kts 201°
2026-04-30 06:27 46.52971 -6.00573 36981 ft 443 kts 201°
2026-04-30 06:27 46.47225 -6.03772 36995 ft 442 kts 201°
2026-04-30 06:28 46.41474 -6.06965 36983 ft 442 kts 201°
2026-04-30 06:28 46.35734 -6.10146 37001 ft 442 kts 201°
2026-04-30 06:29 46.29984 -6.13326 36993 ft 442 kts 201°
2026-04-30 06:29 46.24240 -6.16495 36978 ft 442 kts 201°
2026-04-30 06:30 46.18536 -6.19635 36992 ft 442 kts 201°
2026-04-30 06:30 46.12780 -6.22796 36989 ft 442 kts 201°
2026-04-30 06:31 46.07027 -6.25949 36997 ft 443 kts 201°
2026-04-30 06:31 46.01269 -6.29098 36986 ft 443 kts 201°
2026-04-30 06:32 45.95498 -6.32246 36991 ft 444 kts 201°
2026-04-30 06:32 45.89725 -6.35386 37002 ft 444 kts 202°
2026-04-30 06:33 45.83938 -6.38530 36989 ft 445 kts 202°
2026-04-30 06:33 45.78152 -6.41667 36997 ft 445 kts 202°
2026-04-30 06:34 45.72355 -6.44802 36990 ft 445 kts 202°
2026-04-30 06:34 45.66556 -6.47931 36985 ft 446 kts 201°
2026-04-30 06:35 45.60746 -6.51058 37009 ft 446 kts 201°
2026-04-30 06:35 45.55919 -6.53652 36981 ft 446 kts 202°
2026-04-30 06:36 45.50109 -6.56767 36990 ft 447 kts 202°
2026-04-30 06:36 45.44279 -6.59885 36997 ft 447 kts 201°
2026-04-30 06:37 45.38448 -6.62997 36989 ft 448 kts 202°
2026-04-30 06:37 45.32615 -6.66104 37003 ft 448 kts 202°
2026-04-30 06:38 45.26780 -6.69205 37006 ft 447 kts 202°
2026-04-30 06:38 45.20946 -6.72299 36997 ft 448 kts 202°
2026-04-30 06:39 45.15112 -6.75386 36989 ft 448 kts 202°
2026-04-30 06:39 45.09279 -6.78466 37000 ft 447 kts 202°
2026-04-30 06:40 45.03440 -6.81542 36998 ft 448 kts 202°
2026-04-30 06:40 44.97604 -6.84610 36995 ft 448 kts 202°
2026-04-30 06:41 44.91764 -6.87674 37010 ft 448 kts 202°
2026-04-30 06:41 44.85929 -6.90729 37006 ft 447 kts 202°
2026-04-30 06:42 44.80044 -6.93598 36998 ft 448 kts 199°
2026-04-30 06:42 44.74050 -6.95990 37003 ft 448 kts 197°
2026-04-30 06:43 44.68043 -6.98296 37007 ft 447 kts 197°
2026-04-30 06:43 44.62049 -7.00652 37008 ft 447 kts 198°
2026-04-30 06:44 44.56070 -7.03043 36998 ft 447 kts 198°
2026-04-30 06:44 44.50089 -7.05441 37011 ft 447 kts 198°
2026-04-30 06:45 44.44112 -7.07834 37010 ft 447 kts 198°
2026-04-30 06:45 44.38128 -7.10222 36993 ft 447 kts 198°
2026-04-30 06:46 44.32150 -7.12602 37017 ft 447 kts 198°
2026-04-30 06:46 44.26170 -7.14977 37004 ft 447 kts 198°
2026-04-30 06:47 44.20190 -7.17348 37005 ft 447 kts 198°
2026-04-30 06:47 44.14206 -7.19715 37023 ft 447 kts 198°
2026-04-30 06:48 44.08225 -7.22075 37014 ft 447 kts 198°
2026-04-30 06:48 44.02285 -7.24414 37016 ft 446 kts 198°
2026-04-30 06:49 43.96319 -7.26759 36997 ft 445 kts 198°
2026-04-30 06:49 43.90367 -7.29094 37015 ft 444 kts 198°
2026-04-30 06:50 43.84417 -7.31424 37003 ft 444 kts 198°
2026-04-30 06:50 43.78476 -7.33745 37001 ft 443 kts 198°
2026-04-30 06:51 43.72541 -7.36058 37008 ft 443 kts 198°
2026-04-30 06:51 43.66609 -7.38366 37012 ft 443 kts 198°
2026-04-30 06:52 43.60678 -7.40669 37023 ft 443 kts 198°
2026-04-30 06:52 43.54741 -7.42969 37012 ft 443 kts 199°
2026-04-30 06:53 43.48805 -7.45264 37013 ft 443 kts 199°
2026-04-30 06:53 43.42864 -7.47556 37021 ft 443 kts 199°
2026-04-30 06:54 43.36930 -7.49841 37011 ft 443 kts 199°
2026-04-30 06:54 43.30987 -7.52125 37027 ft 443 kts 199°
2026-04-30 06:55 43.25047 -7.54403 37022 ft 443 kts 199°
2026-04-30 06:55 43.19106 -7.56677 37010 ft 444 kts 199°
2026-04-30 06:56 43.13166 -7.58946 37030 ft 443 kts 199°
2026-04-30 06:56 43.07225 -7.61210 37022 ft 443 kts 199°
2026-04-30 06:57 43.01293 -7.63467 37005 ft 442 kts 199°
2026-04-30 06:57 42.95412 -7.65699 37028 ft 441 kts 199°
2026-04-30 06:58 42.89498 -7.67940 37003 ft 441 kts 199°
2026-04-30 06:58 42.83580 -7.70179 37014 ft 441 kts 199°
2026-04-30 06:59 42.77676 -7.72407 37027 ft 440 kts 199°
2026-04-30 06:59 42.71770 -7.74631 37002 ft 440 kts 199°
2026-04-30 07:00 42.65877 -7.76845 37017 ft 439 kts 199°
2026-04-30 07:00 42.59999 -7.79051 37027 ft 438 kts 199°
2026-04-30 07:01 42.54119 -7.81254 37032 ft 438 kts 199°
2026-04-30 07:01 42.48251 -7.83447 37027 ft 438 kts 199°
2026-04-30 07:02 42.42377 -7.85638 37024 ft 438 kts 199°
2026-04-30 07:02 42.36508 -7.87822 37033 ft 437 kts 199°
2026-04-30 07:03 42.30638 -7.90003 37018 ft 438 kts 200°
2026-04-30 07:03 42.24764 -7.92181 37037 ft 437 kts 200°
2026-04-30 07:04 42.18893 -7.94355 37031 ft 438 kts 200°
2026-04-30 07:04 42.13016 -7.96526 37030 ft 438 kts 200°
2026-04-30 07:05 42.04250 -7.99756 37031 ft 438 kts 200°
2026-04-30 07:05 41.98374 -8.01917 37041 ft 438 kts 200°
2026-04-30 07:06 41.92496 -8.04074 37055 ft 438 kts 200°
2026-04-30 07:06 41.86626 -8.06225 37037 ft 437 kts 200°
2026-04-30 07:07 41.80752 -8.08335 37044 ft 438 kts 197°
2026-04-30 07:07 41.74722 -8.09729 37059 ft 441 kts 192°
2026-04-30 07:08 41.68635 -8.10773 37044 ft 440 kts 192°
2026-04-30 07:08 41.62577 -8.11858 37051 ft 439 kts 193°
2026-04-30 07:09 41.56531 -8.13017 37052 ft 438 kts 193°
2026-04-30 07:09 41.50502 -8.14200 37066 ft 438 kts 193°
2026-04-30 07:10 41.44482 -8.15386 37051 ft 437 kts 193°
2026-04-30 07:10 41.38475 -8.16564 37061 ft 436 kts 193°
2026-04-30 07:11 41.32466 -8.17738 37063 ft 436 kts 193°
2026-04-30 07:11 41.26468 -8.18907 37051 ft 436 kts 193°
2026-04-30 07:12 41.20477 -8.20072 37059 ft 434 kts 193°
2026-04-30 07:12 41.14496 -8.21234 37062 ft 434 kts 193°
2026-04-30 07:13 41.08520 -8.22393 37060 ft 434 kts 193°
2026-04-30 07:13 41.02544 -8.23549 37051 ft 434 kts 193°
2026-04-30 07:14 40.96574 -8.24702 37068 ft 433 kts 193°
2026-04-30 07:14 40.90605 -8.25853 37067 ft 434 kts 193°
2026-04-30 07:15 40.84672 -8.26995 37070 ft 434 kts 193°
2026-04-30 07:15 40.78706 -8.28141 37076 ft 433 kts 192°
2026-04-30 07:16 40.72748 -8.29283 37066 ft 433 kts 192°
2026-04-30 07:16 40.66789 -8.30424 37080 ft 432 kts 192°
2026-04-30 07:17 40.60837 -8.31561 37047 ft 432 kts 192°
2026-04-30 07:18 40.51916 -8.33261 37074 ft 431 kts 192°
2026-04-30 07:18 40.45975 -8.34392 37070 ft 432 kts 192°
2026-04-30 07:19 40.40034 -8.35520 37066 ft 432 kts 192°
2026-04-30 07:19 40.34094 -8.36645 37063 ft 431 kts 192°
2026-04-30 07:20 40.28158 -8.37768 37073 ft 431 kts 192°
2026-04-30 07:20 40.22225 -8.38888 37083 ft 430 kts 192°
2026-04-30 07:21 40.16293 -8.40007 37048 ft 430 kts 192°
2026-04-30 07:21 40.10377 -8.41120 37068 ft 429 kts 192°
2026-04-30 07:22 40.01514 -8.42784 37072 ft 429 kts 192°
2026-04-30 07:22 39.95606 -8.43891 37078 ft 429 kts 192°
2026-04-30 07:23 39.89746 -8.44988 37076 ft 428 kts 192°
2026-04-30 07:23 39.83846 -8.46090 37076 ft 428 kts 192°
2026-04-30 07:24 39.77950 -8.47189 37073 ft 428 kts 192°
2026-04-30 07:24 39.72056 -8.48286 37081 ft 428 kts 192°
2026-04-30 07:25 39.66165 -8.49398 37078 ft 427 kts 193°
2026-04-30 07:25 39.60356 -8.50940 37083 ft 425 kts 196°
2026-04-30 07:26 39.55534 -8.52426 37078 ft 426 kts 196°
2026-04-30 07:26 39.49801 -8.54169 37083 ft 426 kts 196°
2026-04-30 07:27 39.44022 -8.55867 37079 ft 426 kts 195°
2026-04-30 07:27 39.38235 -8.57543 37094 ft 426 kts 195°
2026-04-30 07:28 39.32446 -8.59213 37080 ft 427 kts 195°
2026-04-30 07:28 39.26645 -8.60886 37088 ft 427 kts 195°
2026-04-30 07:29 39.20845 -8.62557 37083 ft 427 kts 195°
2026-04-30 07:29 39.15046 -8.64226 37088 ft 427 kts 195°
2026-04-30 07:30 39.06344 -8.66724 37084 ft 427 kts 195°
2026-04-30 07:31 39.00541 -8.68387 37074 ft 427 kts 195°
2026-04-30 07:31 38.94733 -8.70003 37077 ft 427 kts 193°
2026-04-30 07:32 38.88862 -8.71266 37081 ft 428 kts 191°
2026-04-30 07:32 38.82973 -8.72413 37081 ft 428 kts 191°
2026-04-30 07:33 38.77092 -8.73592 37080 ft 427 kts 191°
2026-04-30 07:33 38.71212 -8.74800 37076 ft 427 kts 191°
2026-04-30 07:34 38.65345 -8.76013 37076 ft 428 kts 191°
2026-04-30 07:34 38.59511 -8.77217 37098 ft 427 kts 191°
2026-04-30 07:35 38.53643 -8.78426 37065 ft 427 kts 191°
2026-04-30 07:35 38.47777 -8.79632 37100 ft 427 kts 191°
2026-04-30 07:36 38.41907 -8.80836 37081 ft 427 kts 191°
2026-04-30 07:36 38.36033 -8.82040 37085 ft 427 kts 191°
2026-04-30 07:37 38.30162 -8.83241 37078 ft 428 kts 190°
2026-04-30 07:37 38.24286 -8.84441 37086 ft 428 kts 190°
2026-04-30 07:38 38.18406 -8.85640 37074 ft 428 kts 190°
2026-04-30 07:38 38.12520 -8.86838 37084 ft 428 kts 190°
2026-04-30 07:39 38.06635 -8.88032 37077 ft 429 kts 190°
2026-04-30 07:39 38.00716 -8.89029 37084 ft 429 kts 188°
2026-04-30 07:40 37.94785 -8.89926 37087 ft 429 kts 188°
2026-04-30 07:40 37.88852 -8.90843 37085 ft 429 kts 188°
2026-04-30 07:41 37.82919 -8.91780 37084 ft 429 kts 188°
2026-04-30 07:41 37.76988 -8.92722 37090 ft 429 kts 188°
2026-04-30 07:42 37.71062 -8.93661 37099 ft 430 kts 188°
2026-04-30 07:42 37.65126 -8.94600 37077 ft 430 kts 188°
2026-04-30 07:43 37.59193 -8.95537 37086 ft 430 kts 188°
2026-04-30 07:43 37.53258 -8.96473 37078 ft 430 kts 188°
2026-04-30 07:44 37.47327 -8.97406 37074 ft 430 kts 188°
2026-04-30 07:44 37.41394 -8.98338 37093 ft 430 kts 188°
2026-04-30 07:45 37.35456 -8.99270 37063 ft 430 kts 188°
2026-04-30 07:45 37.29525 -9.00245 37087 ft 429 kts 190°
2026-04-30 07:46 37.23679 -9.01772 37102 ft 429 kts 194°
2026-04-30 07:46 37.17911 -9.03528 37091 ft 429 kts 194°
2026-04-30 07:47 37.12099 -9.05247 37077 ft 430 kts 193°
2026-04-30 07:47 37.06268 -9.06908 37090 ft 430 kts 193°
2026-04-30 07:48 37.00436 -9.08542 37091 ft 430 kts 193°
2026-04-30 07:48 36.94600 -9.10172 37079 ft 430 kts 193°
2026-04-30 07:49 36.88759 -9.11803 37090 ft 430 kts 193°
2026-04-30 07:49 36.82914 -9.13433 37098 ft 430 kts 193°
2026-04-30 07:50 36.77067 -9.15062 37065 ft 431 kts 193°
2026-04-30 07:50 36.71218 -9.16689 37078 ft 431 kts 193°
2026-04-30 07:51 36.65368 -9.18314 37086 ft 431 kts 193°
2026-04-30 07:51 36.59517 -9.19936 37074 ft 431 kts 193°
2026-04-30 07:52 36.53654 -9.21559 37097 ft 431 kts 193°
2026-04-30 07:52 36.47793 -9.23179 37074 ft 432 kts 193°
2026-04-30 07:53 36.41924 -9.24799 37086 ft 432 kts 193°
2026-04-30 07:53 36.36050 -9.26418 37093 ft 432 kts 193°
2026-04-30 07:54 36.30173 -9.28035 37075 ft 433 kts 193°
2026-04-30 07:54 36.24294 -9.29650 37094 ft 433 kts 193°
2026-04-30 07:55 36.18412 -9.31264 37080 ft 433 kts 193°
2026-04-30 07:55 36.12528 -9.32876 37096 ft 433 kts 193°
2026-04-30 07:56 36.06640 -9.34486 37087 ft 433 kts 193°
2026-04-30 07:56 36.00760 -9.36092 37074 ft 433 kts 193°
2026-04-30 07:57 35.94916 -9.37926 37070 ft 433 kts 199°
2026-04-30 07:57 35.89369 -9.40793 37089 ft 432 kts 206°
2026-04-30 07:58 35.84051 -9.44252 37101 ft 432 kts 208°
2026-04-30 07:58 35.78716 -9.47673 37115 ft 432 kts 207°
2026-04-30 07:59 35.73317 -9.50945 37111 ft 432 kts 206°
2026-04-30 07:59 35.67888 -9.54137 37104 ft 432 kts 206°
2026-04-30 08:00 35.59770 -9.58870 37096 ft 432 kts 206°
2026-04-30 08:00 35.54340 -9.62034 37103 ft 432 kts 206°
2026-04-30 08:01 35.48908 -9.65197 37105 ft 432 kts 206°
2026-04-30 08:01 35.43472 -9.68359 37098 ft 432 kts 206°
2026-04-30 08:02 35.35322 -9.73091 37098 ft 432 kts 206°
2026-04-30 08:03 35.24460 -9.79380 37091 ft 432 kts 206°
2026-04-30 08:04 35.19027 -9.82519 37083 ft 432 kts 206°
2026-04-30 08:04 35.13596 -9.85652 37071 ft 432 kts 206°
2026-04-30 08:05 35.08171 -9.88778 37070 ft 431 kts 206°
2026-04-30 08:05 35.02745 -9.91898 37084 ft 431 kts 206°
2026-04-30 08:06 34.97322 -9.95013 37104 ft 431 kts 206°
2026-04-30 08:06 34.91897 -9.98124 37108 ft 430 kts 206°
2026-04-30 08:07 34.86476 -10.01228 37099 ft 430 kts 206°
2026-04-30 08:07 34.81056 -10.04327 37069 ft 430 kts 206°
2026-04-30 08:08 34.75640 -10.07420 37085 ft 431 kts 206°
2026-04-30 08:08 34.70212 -10.10515 37077 ft 431 kts 206°
2026-04-30 08:09 34.64788 -10.13603 37088 ft 431 kts 206°
2026-04-30 08:09 34.59361 -10.16688 37099 ft 431 kts 206°
2026-04-30 08:10 34.53924 -10.19775 37099 ft 431 kts 206°
2026-04-30 08:10 34.48527 -10.22834 37089 ft 432 kts 206°
2026-04-30 08:11 34.43087 -10.25913 37100 ft 431 kts 206°
2026-04-30 08:11 34.37643 -10.28990 37083 ft 432 kts 206°
2026-04-30 08:12 34.32201 -10.32061 37109 ft 431 kts 206°
2026-04-30 08:12 34.26759 -10.35128 37088 ft 432 kts 206°
2026-04-30 08:13 34.21312 -10.38194 37083 ft 432 kts 206°
2026-04-30 08:13 34.15874 -10.41250 37092 ft 431 kts 206°
2026-04-30 08:14 34.10431 -10.44305 37101 ft 431 kts 206°
2026-04-30 08:14 34.04987 -10.47356 37087 ft 431 kts 206°
2026-04-30 08:15 34.00427 -10.49907 37088 ft 431 kts 206°
2026-04-30 08:15 33.95021 -10.52929 37078 ft 431 kts 206°
2026-04-30 08:16 33.89582 -10.55965 37105 ft 431 kts 206°
2026-04-30 08:16 33.84141 -10.58997 37097 ft 431 kts 206°
2026-04-30 08:17 33.78690 -10.62031 37093 ft 431 kts 206°
2026-04-30 08:17 33.73247 -10.65056 37086 ft 431 kts 206°
2026-04-30 08:18 33.67803 -10.68077 37093 ft 431 kts 206°
2026-04-30 08:18 33.62358 -10.71095 37093 ft 431 kts 206°
2026-04-30 08:19 33.56918 -10.74106 37093 ft 431 kts 206°
2026-04-30 08:19 33.51475 -10.77114 37092 ft 431 kts 206°
2026-04-30 08:20 33.46033 -10.80117 37075 ft 430 kts 206°
2026-04-30 08:20 33.40599 -10.83112 37091 ft 430 kts 206°
2026-04-30 08:21 33.35162 -10.86105 37090 ft 430 kts 206°
2026-04-30 08:21 33.29761 -10.89073 37093 ft 430 kts 206°
2026-04-30 08:22 33.24325 -10.92057 37093 ft 430 kts 206°
2026-04-30 08:22 33.18886 -10.95038 37081 ft 430 kts 206°
2026-04-30 08:23 33.13447 -10.98014 37104 ft 430 kts 206°
2026-04-30 08:23 33.08004 -11.00990 37086 ft 431 kts 206°
2026-04-30 08:24 33.02548 -11.03969 37096 ft 431 kts 206°
2026-04-30 08:24 32.97091 -11.06944 37099 ft 432 kts 206°
2026-04-30 08:25 32.91626 -11.09919 37090 ft 432 kts 206°
2026-04-30 08:25 32.86164 -11.12888 37102 ft 432 kts 206°
2026-04-30 08:26 32.80685 -11.15862 37091 ft 433 kts 206°
2026-04-30 08:26 32.75212 -11.18830 37099 ft 432 kts 206°
2026-04-30 08:27 32.69736 -11.21794 37096 ft 432 kts 206°
2026-04-30 08:27 32.64262 -11.24754 37082 ft 432 kts 207°
2026-04-30 08:28 32.58784 -11.27712 37103 ft 432 kts 207°
2026-04-30 08:28 32.53311 -11.30663 37092 ft 432 kts 206°
2026-04-30 08:29 32.47829 -11.33615 37088 ft 433 kts 207°
2026-04-30 08:29 32.42344 -11.36564 37104 ft 433 kts 207°
2026-04-30 08:30 32.36862 -11.39516 37083 ft 434 kts 208°
2026-04-30 08:30 32.31461 -11.42691 37101 ft 433 kts 210°
2026-04-30 08:31 32.26108 -11.45965 37092 ft 433 kts 210°
2026-04-30 08:31 32.20780 -11.49194 37093 ft 434 kts 210°
2026-04-30 08:32 32.15405 -11.52416 37104 ft 433 kts 209°
2026-04-30 08:32 32.10022 -11.55624 37089 ft 434 kts 209°
2026-04-30 08:33 32.04635 -11.58828 37089 ft 434 kts 209°
2026-04-30 08:33 31.99246 -11.62030 37102 ft 434 kts 209°
2026-04-30 08:34 31.93851 -11.65232 37102 ft 435 kts 209°
2026-04-30 08:34 31.88448 -11.68435 37101 ft 435 kts 209°
2026-04-30 08:35 31.83032 -11.71640 37103 ft 436 kts 209°
2026-04-30 08:35 31.77613 -11.74844 37088 ft 436 kts 210°
2026-04-30 08:36 31.72185 -11.78049 37110 ft 437 kts 210°
2026-04-30 08:36 31.66752 -11.81253 37098 ft 437 kts 210°
2026-04-30 08:37 31.61309 -11.84458 37109 ft 438 kts 210°
2026-04-30 08:37 31.55866 -11.87658 37104 ft 438 kts 210°
2026-04-30 08:38 31.50414 -11.90860 37087 ft 438 kts 210°
2026-04-30 08:38 31.44965 -11.94056 37106 ft 438 kts 210°
2026-04-30 08:39 31.39508 -11.97253 37101 ft 439 kts 210°
2026-04-30 08:39 31.34046 -12.00448 37103 ft 439 kts 210°
2026-04-30 08:39 31.31327 -12.02037 36934 ft 434 kts 210°
2026-04-30 08:40 31.28646 -12.03600 36572 ft 427 kts 210°
2026-04-30 08:40 31.26014 -12.05134 36378 ft 418 kts 210°
2026-04-30 08:40 31.23430 -12.06639 36081 ft 412 kts 210°
2026-04-30 08:40 31.20890 -12.08118 35804 ft 405 kts 210°
2026-04-30 08:41 31.18386 -12.09577 35570 ft 401 kts 210°
2026-04-30 08:41 31.15894 -12.11029 35321 ft 399 kts 210°
2026-04-30 08:41 31.13417 -12.12472 35077 ft 397 kts 210°
2026-04-30 08:41 31.10952 -12.13908 34837 ft 395 kts 210°
2026-04-30 08:42 31.08528 -12.15318 34605 ft 394 kts 210°
2026-04-30 08:42 31.06077 -12.16743 34371 ft 393 kts 210°
2026-04-30 08:42 31.03629 -12.18165 34137 ft 393 kts 210°
2026-04-30 08:42 31.01186 -12.19583 33877 ft 392 kts 210°
2026-04-30 08:43 30.98746 -12.20998 33611 ft 392 kts 210°
2026-04-30 08:43 30.96307 -12.22412 33342 ft 391 kts 210°
2026-04-30 08:43 30.93875 -12.23820 33081 ft 390 kts 210°
2026-04-30 08:43 30.91444 -12.25228 32798 ft 390 kts 210°
2026-04-30 08:44 30.89021 -12.26630 32541 ft 389 kts 210°
2026-04-30 08:44 30.86601 -12.28029 32285 ft 388 kts 210°
2026-04-30 08:44 30.84184 -12.29425 32029 ft 387 kts 210°
2026-04-30 08:44 30.81782 -12.30813 31778 ft 385 kts 210°
2026-04-30 08:45 30.79389 -12.32194 31521 ft 383 kts 210°
2026-04-30 08:45 30.77006 -12.33569 31273 ft 381 kts 210°
2026-04-30 08:45 30.74636 -12.34935 31044 ft 379 kts 210°
2026-04-30 08:45 30.72277 -12.36295 30797 ft 377 kts 210°
2026-04-30 08:46 30.69932 -12.37645 30541 ft 375 kts 209°
2026-04-30 08:46 30.67604 -12.38986 30301 ft 373 kts 209°
2026-04-30 08:46 30.65282 -12.40322 30042 ft 371 kts 209°
2026-04-30 08:46 30.62980 -12.41645 29748 ft 369 kts 210°
2026-04-30 08:47 30.60683 -12.42965 29473 ft 367 kts 210°
2026-04-30 08:47 30.58404 -12.44274 29198 ft 365 kts 210°
2026-04-30 08:47 30.56131 -12.45579 28921 ft 364 kts 210°
2026-04-30 08:47 30.53869 -12.46877 28654 ft 362 kts 210°
2026-04-30 08:48 30.51613 -12.48172 28385 ft 361 kts 210°
2026-04-30 08:48 30.49372 -12.49457 28123 ft 360 kts 210°
2026-04-30 08:48 30.47133 -12.50740 27856 ft 359 kts 210°
2026-04-30 08:48 30.44896 -12.52022 27597 ft 358 kts 210°
2026-04-30 08:49 30.42671 -12.53295 27339 ft 357 kts 210°
2026-04-30 08:49 30.40447 -12.54568 27083 ft 356 kts 210°
2026-04-30 08:49 30.38233 -12.55834 26833 ft 355 kts 210°
2026-04-30 08:49 30.36034 -12.57091 26584 ft 354 kts 210°
2026-04-30 08:50 30.33827 -12.58352 26326 ft 354 kts 210°
2026-04-30 08:50 30.31622 -12.59611 26079 ft 353 kts 210°
2026-04-30 08:50 30.29423 -12.60866 25829 ft 352 kts 210°
2026-04-30 08:50 30.27224 -12.62121 25606 ft 352 kts 210°
2026-04-30 08:51 30.25028 -12.63372 25360 ft 351 kts 210°
2026-04-30 08:51 30.22868 -12.64604 25120 ft 351 kts 210°
2026-04-30 08:51 30.20656 -12.65864 24883 ft 350 kts 210°
2026-04-30 08:51 30.18503 -12.67090 24650 ft 349 kts 210°
2026-04-30 08:52 30.16300 -12.68344 24413 ft 348 kts 210°
2026-04-30 08:52 30.14164 -12.69559 24179 ft 347 kts 210°
2026-04-30 08:52 30.11997 -12.70790 23957 ft 346 kts 210°
2026-04-30 08:52 30.09965 -12.72225 23641 ft 340 kts 228°
2026-04-30 08:53 30.08449 -12.74276 23472 ft 332 kts 235°
2026-04-30 08:53 30.07020 -12.76366 23145 ft 333 kts 233°
2026-04-30 08:53 30.05491 -12.78369 22916 ft 332 kts 230°
2026-04-30 08:53 30.03908 -12.80309 22638 ft 331 kts 230°
2026-04-30 08:54 30.02312 -12.82260 21815 ft 344 kts 229°
2026-04-30 08:54 30.00426 -12.84107 20606 ft 369 kts 216°
2026-04-30 08:54 29.98072 -12.85541 19398 ft 394 kts 208°
2026-04-30 08:54 29.95521 -12.86845 18294 ft 409 kts 206°
2026-04-30 08:55 29.92898 -12.88171 17520 ft 412 kts 207°
2026-04-30 08:55 29.90326 -12.89566 17356 ft 409 kts 209°
2026-04-30 08:55 29.87811 -12.91102 17251 ft 408 kts 211°
2026-04-30 08:55 29.85337 -12.92680 17099 ft 404 kts 212°
2026-04-30 08:56 29.82877 -12.94236 17036 ft 403 kts 211°
2026-04-30 08:56 29.80408 -12.95761 17045 ft 403 kts 210°
2026-04-30 08:56 29.77877 -12.97183 17024 ft 405 kts 207°
2026-04-30 08:56 29.75288 -12.98465 17028 ft 406 kts 205°
2026-04-30 08:57 29.72680 -12.99625 16816 ft 398 kts 203°
2026-04-30 08:57 29.70088 -13.00663 16536 ft 389 kts 201°
2026-04-30 08:57 29.67556 -13.01627 16295 ft 379 kts 201°
2026-04-30 08:57 29.65082 -13.02582 16032 ft 370 kts 202°
2026-04-30 08:58 29.62678 -13.03542 15775 ft 362 kts 202°
2026-04-30 08:58 29.60330 -13.04508 15532 ft 355 kts 203°
2026-04-30 08:58 29.58035 -13.05473 15281 ft 348 kts 203°
2026-04-30 08:58 29.55777 -13.06435 15042 ft 344 kts 204°
2026-04-30 08:59 29.53535 -13.07398 14815 ft 359 kts 204°
2026-04-30 08:59 29.51115 -13.08447 14638 ft 385 kts 204°
2026-04-30 08:59 29.48545 -13.09560 14511 ft 402 kts 203°
2026-04-30 08:59 29.45909 -13.10694 14388 ft 405 kts 203°
2026-04-30 09:00 29.43268 -13.11825 14284 ft 404 kts 203°
2026-04-30 09:00 29.40640 -13.12949 14176 ft 403 kts 203°
2026-04-30 09:00 29.38027 -13.14065 13986 ft 395 kts 203°
2026-04-30 09:00 29.35462 -13.15161 13337 ft 395 kts 203°
2026-04-30 09:01 29.32887 -13.16264 12627 ft 395 kts 203°
2026-04-30 09:01 29.30318 -13.17365 11957 ft 394 kts 203°
2026-04-30 09:01 29.27763 -13.18458 11383 ft 391 kts 203°
2026-04-30 09:01 29.25227 -13.19543 10841 ft 387 kts 203°
2026-04-30 09:02 29.20209 -13.21688 9673 ft 383 kts 203°
2026-04-30 09:02 29.17719 -13.22752 9097 ft 380 kts 202°
2026-04-30 09:02 29.15254 -13.23804 8547 ft 376 kts 202°
2026-04-30 09:03 29.12810 -13.24847 8136 ft 375 kts 202°
2026-04-30 09:03 29.10363 -13.25891 8140 ft 376 kts 202°
2026-04-30 09:03 29.07906 -13.26939 8024 ft 376 kts 202°
2026-04-30 09:03 29.05468 -13.27978 8045 ft 373 kts 202°
2026-04-30 09:04 29.03024 -13.29020 8011 ft 375 kts 202°
2026-04-30 09:04 29.00585 -13.30058 8032 ft 374 kts 202°
2026-04-30 09:04 28.98133 -13.31086 8008 ft 375 kts 202°
2026-04-30 09:04 28.95678 -13.32098 8013 ft 375 kts 202°
2026-04-30 09:05 28.93252 -13.33086 8027 ft 375 kts 201°
2026-04-30 09:05 28.90759 -13.34094 8009 ft 375 kts 201°
2026-04-30 09:05 28.88295 -13.35087 8007 ft 375 kts 201°
2026-04-30 09:05 28.85865 -13.36065 8019 ft 375 kts 201°
2026-04-30 09:06 28.83406 -13.37054 8031 ft 375 kts 201°
2026-04-30 09:06 28.80941 -13.38045 8018 ft 375 kts 201°
2026-04-30 09:06 28.78515 -13.39021 7798 ft 367 kts 201°
2026-04-30 09:06 28.76103 -13.39991 7288 ft 366 kts 201°
2026-04-30 09:07 28.73702 -13.40955 6678 ft 366 kts 201°
2026-04-30 09:07 28.72108 -13.41600 6282 ft 366 kts 202°
2026-04-30 09:07 28.69789 -13.42750 5734 ft 361 kts 210°
2026-04-30 09:07 28.67884 -13.44534 5084 ft 356 kts 237°
2026-04-30 09:08 28.67019 -13.47094 4673 ft 344 kts 265°
2026-04-30 09:08 28.67319 -13.49734 4169 ft 338 kts 292°
2026-04-30 09:08 28.68684 -13.51887 3508 ft 339 kts 321°
2026-04-30 09:08 28.70643 -13.53333 3122 ft 332 kts 328°
2026-04-30 09:09 28.72390 -13.55041 2420 ft 337 kts 304°
2026-04-30 09:09 28.73383 -13.57452 2525 ft 340 kts 293°
2026-04-30 09:09 28.74305 -13.59955 2349 ft 342 kts 295°
2026-04-30 09:09 28.75387 -13.62350 2345 ft 338 kts 299°
2026-04-30 09:10 28.76512 -13.64702 2344 ft 339 kts 298°
2026-04-30 09:10 28.77597 -13.67091 2336 ft 339 kts 297°
2026-04-30 09:10 28.78769 -13.69413 2300 ft 339 kts 309°
2026-04-30 09:10 28.80628 -13.70989 2330 ft 332 kts 340°
2026-04-30 09:11 28.82807 -13.71247 2314 ft 300 kts 11°
2026-04-30 09:11 28.84553 -13.70303 2348 ft 263 kts 36°
2026-04-30 09:11 28.85895 -13.68990 2291 ft 251 kts 45°
2026-04-30 09:11 28.86992 -13.67541 2174 ft 230 kts 54°
2026-04-30 09:12 28.87722 -13.65957 1694 ft 223 kts 66°
2026-04-30 09:12 28.88357 -13.64411 1431 ft 207 kts 59°
2026-04-30 09:12 28.89090 -13.63076 1253 ft 191 kts 54°
2026-04-30 09:12 28.89904 -13.61909 1109 ft 200 kts 48°
2026-04-30 09:13 28.90969 -13.60721 1510 ft 225 kts 39°
2026-04-30 09:13 28.92314 -13.59727 2207 ft 233 kts 28°
2026-04-30 09:13 28.93758 -13.58919 3163 ft 227 kts 22°
2026-04-30 09:13 28.95195 -13.58196 3931 ft 234 kts 21°
2026-04-30 09:14 28.96811 -13.57390 3917 ft 269 kts 21°
2026-04-30 09:14 28.98552 -13.56384 3980 ft 295 kts 34°
2026-04-30 09:14 28.99979 -13.54556 4119 ft 316 kts 59°
2026-04-30 09:14 29.00723 -13.52301 4267 ft 291 kts 73°
2026-04-30 09:15 29.01166 -13.50152 4323 ft 266 kts 81°
2026-04-30 09:15 29.01030 -13.48128 4280 ft 251 kts 109°
2026-04-30 09:15 29.00239 -13.46417 4201 ft 237 kts 121°
2026-04-30 09:15 28.99363 -13.44847 4061 ft 233 kts 122°
2026-04-30 09:16 28.98475 -13.43302 3925 ft 232 kts 126°
2026-04-30 09:16 28.97271 -13.42114 3744 ft 232 kts 158°
2026-04-30 09:16 28.95658 -13.41925 3269 ft 239 kts 189°
2026-04-30 09:16 28.94011 -13.42250 2810 ft 241 kts 191°
2026-04-30 09:17 28.92356 -13.42509 2539 ft 234 kts 186°
2026-04-30 09:17 28.90775 -13.42641 2439 ft 223 kts 183°
2026-04-30 09:17 28.89307 -13.42888 2332 ft 210 kts 203°
2026-04-30 09:17 28.88285 -13.43914 2326 ft 191 kts 243°
2026-04-30 09:18 28.87536 -13.45174 2300 ft 196 kts 219°
2026-04-30 09:18 28.86398 -13.45992 2330 ft 194 kts 214°
2026-04-30 09:18 28.85295 -13.46862 2326 ft 192 kts 217°
2026-04-30 09:18 28.84212 -13.47754 2319 ft 192 kts 217°
2026-04-30 09:19 28.83132 -13.48648 2325 ft 191 kts 217°
2026-04-30 09:19 28.82058 -13.49543 2324 ft 191 kts 217°
2026-04-30 09:19 28.80993 -13.50434 2336 ft 190 kts 217°
2026-04-30 09:19 28.79930 -13.51326 2333 ft 189 kts 217°
2026-04-30 09:20 28.78868 -13.52216 2331 ft 190 kts 217°
2026-04-30 09:20 28.77805 -13.53109 2331 ft 190 kts 217°
2026-04-30 09:20 28.76741 -13.54004 2333 ft 190 kts 217°
2026-04-30 09:20 28.75679 -13.54898 2337 ft 190 kts 217°
2026-04-30 09:21 28.74712 -13.55910 2294 ft 189 kts 245°
2026-04-30 09:21 28.74456 -13.57330 2334 ft 185 kts 278°
2026-04-30 09:21 28.74878 -13.58696 2383 ft 185 kts 295°
2026-04-30 09:21 28.75371 -13.60069 2331 ft 186 kts 292°
2026-04-30 09:22 28.75833 -13.61434 2336 ft 184 kts 292°
2026-04-30 09:22 28.76296 -13.62790 2326 ft 183 kts 292°
2026-04-30 09:22 28.76764 -13.64145 2412 ft 186 kts 293°
2026-04-30 09:22 28.77236 -13.65513 3056 ft 183 kts 292°
2026-04-30 09:23 28.77698 -13.66868 3433 ft 183 kts 293°
2026-04-30 09:23 28.78279 -13.68120 3478 ft 177 kts 319°
2026-04-30 09:23 28.79351 -13.68698 3533 ft 174 kts 352°
2026-04-30 09:23 28.80554 -13.68522 3280 ft 184 kts 18°
2026-04-30 09:24 28.81782 -13.67918 2707 ft 192 kts 25°
2026-04-30 09:24 28.82947 -13.67250 2413 ft 183 kts 26°
2026-04-30 09:24 28.84049 -13.66607 2177 ft 173 kts 26°
2026-04-30 09:24 28.85102 -13.65996 1949 ft 166 kts 26°
2026-04-30 09:25 28.86122 -13.65404 1734 ft 168 kts 26°
2026-04-30 09:25 28.87169 -13.64797 1512 ft 171 kts 27°
2026-04-30 09:25 28.88235 -13.64178 1289 ft 173 kts 27°
2026-04-30 09:25 28.89305 -13.63558 1064 ft 171 kts 27°
2026-04-30 09:26 28.90368 -13.62941 820 ft 171 kts 27°
2026-04-30 09:26 28.91423 -13.62329 619 ft 171 kts 27°
2026-04-30 09:26 28.92483 -13.61714 384 ft 172 kts 28°
2026-04-30 09:26 28.93550 -13.61098 143 ft 170 kts 27°
2026-04-30 09:27 28.94550 -13.60524 59 ft 123 kts 27°
2026-04-30 09:27 28.95100 -13.60216 57 ft 58 kts 16°
2026-04-30 09:27 28.95312 -13.60234 56 ft 21 kts 311°
2026-04-30 09:27 28.95208 -13.60345 56 ft 29 kts 206°
2026-04-30 09:28 28.95135 -13.60386 56 ft 8 kts 208°
2026-04-30 09:28 28.95124 -13.60480 62 ft 17 kts 297°
2026-04-30 09:28 28.95087 -13.60577 62 ft 12 kts 221°
2026-04-30 09:28 28.94991 -13.60648 60 ft 14 kts 206°
2026-04-30 09:29 28.94929 -13.60683 62 ft 9 kts 207°
2026-04-30 09:29 28.94878 -13.60716 56 ft 3 kts 230°
2026-04-30 09:29 28.94879 -13.60732 57 ft 5 kts 288°
2026-04-30 09:29 28.94896 -13.60773 62 ft 5 kts 296°
2026-04-30 09:30 28.94902 -13.60789 59 ft 2 kts 297°
2026-04-30 09:30 28.94909 -13.60803 57 ft 1 kts 297°
2026-04-30 09:30 28.94909 -13.60804 60 ft 0 kts 297°
2026-04-30 09:30 28.94910 -13.60806 59 ft 1 kts 297°
2026-04-30 09:31 28.94911 -13.60808 59 ft 0 kts 297°
2026-04-30 09:31 28.94911 -13.60809 59 ft 0 kts 297°
2026-04-30 09:31 28.94912 -13.60809 59 ft 0 kts 297°